Radiation Dose at Monitoring Post of Fukushima Daini Nuclear Power Station
Date,Time,MP-1(microSv/h),MP-2(microSv/h),MP-3(microSv/h),MP-4(microSv/h),MP-5(microSv/h),MP-6(microSv/h),MP-7(microSv/h),Wind Direction,Wind Velocity(m/s),Rain
2021/04/13,00:00,0.173,0.154,0.255,0.241,0.238,0.136,0.083,south-southwest,6.3,No
2021/04/13,00:10,0.174,0.155,0.255,0.242,0.237,0.136,0.083,south-southwest,7.6,No
2021/04/13,00:20,0.173,0.155,0.255,0.242,0.236,0.135,0.083,south-southwest,7.3,No
2021/04/13,00:30,0.173,0.155,0.256,0.241,0.238,0.135,0.083,south-southwest,8.7,No
2021/04/13,00:40,0.173,0.154,0.255,0.243,0.236,0.136,0.083,south-southwest,7.5,No
2021/04/13,00:50,0.173,0.155,0.254,0.242,0.237,0.135,0.083,south-southwest,8.1,No
2021/04/13,01:00,0.174,0.155,0.255,0.241,0.238,0.135,0.083,south,7.7,No
2021/04/13,01:10,0.173,0.154,0.254,0.241,0.236,0.135,0.083,south-southwest,7.7,No
2021/04/13,01:20,0.173,0.154,0.255,0.240,0.237,0.135,0.084,south-southwest,7.1,No
2021/04/13,01:30,0.173,0.155,0.256,0.241,0.236,0.136,0.083,south-southwest,6.3,No
2021/04/13,01:40,0.172,0.154,0.256,0.241,0.237,0.135,0.083,south-southwest,4.9,No
2021/04/13,01:50,0.173,0.156,0.256,0.239,0.238,0.136,0.082,south,5.5,No
2021/04/13,02:00,0.173,0.155,0.256,0.242,0.236,0.136,0.083,south-southwest,5.7,No
2021/04/13,02:10,0.174,0.155,0.255,0.240,0.238,0.136,0.084,south-southwest,7.2,Yes
2021/04/13,02:20,0.174,0.154,0.255,0.241,0.236,0.135,0.084,south-southwest,7.2,No
2021/04/13,02:30,0.173,0.153,0.256,0.241,0.237,0.135,0.083,south-southwest,5.6,No
2021/04/13,02:40,0.174,0.155,0.254,0.240,0.237,0.136,0.083,south-southwest,6.9,No
2021/04/13,02:50,0.172,0.154,0.256,0.242,0.238,0.135,0.084,south-southwest,6.7,No
2021/04/13,03:00,0.175,0.155,0.255,0.241,0.238,0.134,0.083,south-southwest,6.9,No
2021/04/13,03:10,0.173,0.155,0.255,0.240,0.237,0.135,0.083,south-southwest,6.5,No
2021/04/13,03:20,0.172,0.154,0.255,0.242,0.239,0.136,0.083,south-southwest,7.0,No
2021/04/13,03:30,0.173,0.154,0.254,0.241,0.236,0.135,0.083,south,7.3,No
2021/04/13,03:40,0.172,0.154,0.255,0.241,0.238,0.135,0.083,south-southwest,7.6,No
2021/04/13,03:50,0.174,0.155,0.257,0.241,0.236,0.135,0.083,south-southwest,7.8,No
2021/04/13,04:00,0.172,0.155,0.256,0.242,0.237,0.135,0.083,south,7.8,No
2021/04/13,04:10,0.173,0.155,0.255,0.241,0.238,0.136,0.083,south,7.8,No
2021/04/13,04:20,0.173,0.154,0.255,0.240,0.237,0.135,0.083,south,6.9,No
2021/04/13,04:30,0.172,0.154,0.255,0.241,0.238,0.135,0.083,south-southwest,7.4,No
2021/04/13,04:40,0.173,0.154,0.255,0.241,0.237,0.135,0.083,south-southwest,7.0,No
2021/04/13,04:50,0.173,0.155,0.255,0.240,0.238,0.136,0.084,south-southwest,7.4,No
2021/04/13,05:00,0.174,0.155,0.256,0.243,0.237,0.135,0.084,south-southwest,7.7,No
2021/04/13,05:10,0.173,0.154,0.256,0.241,0.238,0.136,0.082,south-southwest,7.9,No
2021/04/13,05:20,0.174,0.154,0.255,0.242,0.238,0.135,0.084,south-southwest,8.4,No
2021/04/13,05:30,0.173,0.154,0.255,0.241,0.236,0.136,0.082,south,8.3,No
2021/04/13,05:40,0.172,0.154,0.255,0.241,0.238,0.136,0.083,south-southwest,8.2,No
2021/04/13,05:50,0.173,0.155,0.255,0.241,0.236,0.135,0.083,south-southwest,7.7,No
2021/04/13,06:00,0.173,0.153,0.255,0.242,0.238,0.135,0.083,south,8.1,No
2021/04/13,06:10,0.173,0.155,0.255,0.242,0.238,0.135,0.083,south-southwest,9.0,No
2021/04/13,06:20,0.172,0.155,0.256,0.242,0.238,0.136,0.082,south,9.2,No
2021/04/13,06:30,0.174,0.155,0.256,0.240,0.238,0.135,0.083,south,9.2,No
2021/04/13,06:40,0.172,0.154,0.255,0.242,0.235,0.136,0.084,south,9.2,No
2021/04/13,06:50,0.172,0.155,0.257,0.241,0.238,0.135,0.083,south-southwest,10.4,No
2021/04/13,07:00,0.173,0.155,0.255,0.240,0.236,0.136,0.083,south-southwest,10.7,No
2021/04/13,07:10,0.173,0.155,0.257,0.240,0.238,0.136,0.083,south-southwest,8.3,No
2021/04/13,07:20,0.173,0.155,0.256,0.241,0.236,0.135,0.083,south,10.7,No
2021/04/13,07:30,0.174,0.154,0.256,0.241,0.237,0.136,0.083,south,11.5,No
2021/04/13,07:40,0.174,0.154,0.255,0.240,0.236,0.135,0.083,south,11.8,No
2021/04/13,07:50,0.173,0.155,0.256,0.241,0.239,0.135,0.084,south,9.2,No
2021/04/13,08:00,0.173,0.155,0.254,0.240,0.235,0.136,0.083,south,8.7,No
2021/04/13,08:10,0.173,0.154,0.256,0.240,0.237,0.136,0.082,south,9.5,Yes
2021/04/13,08:20,0.172,0.155,0.254,0.240,0.236,0.136,0.083,south,12.2,No
2021/04/13,08:30,0.174,0.154,0.257,0.242,0.239,0.134,0.083,south,10.6,No
2021/04/13,08:40,0.173,0.154,0.255,0.239,0.236,0.136,0.083,south,11.2,No
2021/04/13,08:50,0.174,0.155,0.257,0.242,0.238,0.135,0.083,south,10.3,No
2021/04/13,09:00,0.172,0.154,0.255,0.241,0.237,0.135,0.082,south-southwest,11.4,No
2021/04/13,09:10,0.173,0.154,0.256,0.242,0.236,0.135,0.083,south-southwest,10.3,No
2021/04/13,09:20,0.173,0.155,0.253,0.241,0.237,0.136,0.083,south,9.3,No
2021/04/13,09:30,0.173,0.154,0.256,0.242,0.236,0.135,0.084,south,9.8,No
2021/04/13,09:40,0.173,0.155,0.256,0.241,0.237,0.135,0.082,south-southwest,10.9,No
2021/04/13,09:50,0.173,0.155,0.257,0.242,0.236,0.134,0.083,south,11.2,Yes
2021/04/13,10:00,0.174,0.155,0.256,0.240,0.237,0.136,0.083,south,10.9,No
2021/04/13,10:10,0.174,0.154,0.256,0.242,0.237,0.135,0.084,south,11.5,Yes
2021/04/13,10:20,0.173,0.155,0.256,0.240,0.238,0.136,0.083,south,8.1,No
2021/04/13,10:30,0.173,0.154,0.257,0.242,0.236,0.136,0.084,south,9.8,No
2021/04/13,10:40,0.173,0.154,0.255,0.240,0.238,0.136,0.083,south,10.0,No
2021/04/13,10:50,0.171,0.154,0.257,0.240,0.235,0.137,0.083,south,10.6,No
2021/04/13,11:00,0.173,0.154,0.254,0.241,0.237,0.135,0.083,south,10.7,No
2021/04/13,11:10,0.173,0.154,0.256,0.242,0.238,0.135,0.083,south,11.8,No
2021/04/13,11:20,0.173,0.155,0.255,0.239,0.237,0.135,0.084,south,11.1,No
2021/04/13,11:30,0.173,0.154,0.254,0.242,0.237,0.136,0.083,south,10.3,No
2021/04/13,11:40,0.171,0.154,0.256,0.240,0.235,0.136,0.083,south,10.1,No
2021/04/13,11:50,0.174,0.154,0.254,0.241,0.235,0.135,0.082,south,12.0,No
2021/04/13,12:00,0.173,0.153,0.255,0.240,0.238,0.136,0.081,south,11.4,No
2021/04/13,12:10,0.172,0.155,0.256,0.240,0.236,0.137,0.083,south,12.6,No
2021/04/13,12:20,0.172,0.155,0.255,0.242,0.236,0.135,0.082,south,12.8,No
2021/04/13,12:30,0.173,0.154,0.257,0.241,0.237,0.136,0.083,south-southeast,11.1,No
2021/04/13,12:40,0.172,0.156,0.254,0.242,0.236,0.135,0.083,south,12.6,Yes
2021/04/13,12:50,0.174,0.155,0.257,0.242,0.239,0.135,0.084,south,10.6,No
2021/04/13,13:00,0.173,0.156,0.256,0.242,0.237,0.135,0.082,south,12.3,No
2021/04/13,13:10,0.174,0.154,0.257,0.242,0.237,0.136,0.083,south,10.7,No
2021/04/13,13:20,0.173,0.155,0.255,0.242,0.236,0.136,0.083,south,12.0,Yes
2021/04/13,13:30,0.175,0.155,0.258,0.241,0.238,0.135,0.083,south,12.5,No
2021/04/13,13:40,0.173,0.154,0.255,0.242,0.237,0.135,0.083,south,12.0,Yes
2021/04/13,13:50,0.173,0.154,0.258,0.242,0.238,0.136,0.084,south,12.9,Yes
2021/04/13,14:00,0.173,0.155,0.256,0.242,0.237,0.135,0.083,south,11.2,Yes
2021/04/13,14:10,0.174,0.155,0.257,0.242,0.239,0.137,0.083,south,11.2,Yes
2021/04/13,14:20,0.173,0.156,0.256,0.240,0.238,0.136,0.083,south,8.5,No
2021/04/13,14:30,0.175,0.157,0.255,0.242,0.238,0.136,0.084,south,8.9,No
2021/04/13,14:40,0.172,0.154,0.256,0.242,0.237,0.136,0.083,south,9.8,No
2021/04/13,14:50,0.175,0.156,0.255,0.242,0.237,0.136,0.083,south,9.8,No
2021/04/13,15:00,0.174,0.156,0.257,0.241,0.238,0.136,0.083,south,10.9,Yes
2021/04/13,15:10,0.174,0.155,0.255,0.242,0.238,0.135,0.084,south,8.1,Yes
2021/04/13,15:20,0.172,0.155,0.258,0.241,0.237,0.136,0.083,south,12.5,Yes
2021/04/13,15:30,0.174,0.155,0.256,0.242,0.238,0.135,0.083,south,9.3,Yes
2021/04/13,15:40,0.174,0.156,0.258,0.242,0.236,0.136,0.083,south,10.1,Yes
2021/04/13,15:50,0.173,0.155,0.255,0.241,0.238,0.135,0.083,south,10.1,No
2021/04/13,16:00,0.174,0.154,0.257,0.241,0.237,0.136,0.083,south,10.0,No
2021/04/13,16:10,0.172,0.156,0.254,0.242,0.239,0.135,0.083,south,11.5,Yes
2021/04/13,16:20,0.174,0.155,0.256,0.241,0.235,0.137,0.084,south,14.5,No
2021/04/13,16:30,0.173,0.155,0.255,0.241,0.239,0.135,0.084,south,12.4,Yes
2021/04/13,16:40,0.175,0.154,0.256,0.242,0.238,0.136,0.083,south,9.6,Yes
2021/04/13,16:50,0.173,0.156,0.254,0.242,0.237,0.137,0.085,south-southwest,11.4,Yes
2021/04/13,17:00,0.175,0.156,0.258,0.244,0.237,0.136,0.084,south,8.4,Yes
2021/04/13,17:10,0.173,0.157,0.257,0.243,0.237,0.138,0.085,south,9.0,Yes
2021/04/13,17:20,0.176,0.155,0.259,0.246,0.239,0.138,0.085,south,9.2,Yes
2021/04/13,17:30,0.175,0.156,0.259,0.244,0.239,0.139,0.086,south,10.4,Yes
2021/04/13,17:40,0.176,0.157,0.257,0.245,0.238,0.138,0.086,south,10.1,Yes
2021/04/13,17:50,0.175,0.156,0.260,0.243,0.240,0.138,0.086,south-southwest,9.8,Yes
2021/04/13,18:00,0.175,0.156,0.258,0.245,0.239,0.138,0.086,south,9.2,Yes
2021/04/13,18:10,0.173,0.156,0.258,0.244,0.241,0.137,0.085,south,8.4,Yes
2021/04/13,18:20,0.175,0.157,0.256,0.243,0.239,0.138,0.084,south,10.9,Yes
2021/04/13,18:30,0.175,0.155,0.257,0.243,0.239,0.138,0.085,south-southwest,12.0,Yes
2021/04/13,18:40,0.175,0.156,0.256,0.243,0.236,0.137,0.084,south,10.7,Yes
2021/04/13,18:50,0.174,0.155,0.256,0.243,0.239,0.137,0.084,south-southwest,10.9,Yes
2021/04/13,19:00,0.175,0.156,0.257,0.242,0.237,0.136,0.084,south,10.0,No
2021/04/13,19:10,0.173,0.155,0.255,0.244,0.239,0.136,0.084,south,10.9,No
2021/04/13,19:20,0.174,0.155,0.257,0.242,0.237,0.136,0.084,south,9.5,No
2021/04/13,19:30,0.173,0.156,0.257,0.244,0.238,0.136,0.084,south-southwest,11.2,No
2021/04/13,19:40,0.174,0.154,0.257,0.241,0.236,0.136,0.084,south-southwest,10.7,No
2021/04/13,19:50,0.173,0.156,0.256,0.242,0.239,0.137,0.083,south-southwest,10.6,No
2021/04/13,20:00,0.174,0.155,0.256,0.242,0.237,0.136,0.084,south-southwest,12.0,Yes
2021/04/13,20:10,0.174,0.155,0.256,0.242,0.238,0.136,0.084,south-southwest,10.0,Yes
2021/04/13,20:20,0.174,0.156,0.257,0.242,0.238,0.136,0.084,south-southwest,10.6,Yes
2021/04/13,20:30,0.173,0.156,0.255,0.240,0.238,0.136,0.083,south,10.1,No
2021/04/13,20:40,0.174,0.154,0.255,0.243,0.239,0.136,0.084,south-southwest,10.9,No
2021/04/13,20:50,0.173,0.155,0.256,0.241,0.238,0.135,0.083,south-southwest,9.6,No
2021/04/13,21:00,0.173,0.156,0.256,0.242,0.238,0.137,0.083,south-southwest,9.5,No
2021/04/13,21:10,0.173,0.154,0.256,0.242,0.236,0.135,0.083,south-southwest,9.8,No
2021/04/13,21:20,0.174,0.156,0.256,0.241,0.237,0.137,0.083,south-southwest,11.1,Yes
2021/04/13,21:30,0.173,0.155,0.256,0.242,0.236,0.136,0.083,south,11.2,Yes
2021/04/13,21:40,0.174,0.156,0.256,0.240,0.237,0.137,0.083,south-southwest,11.2,Yes
2021/04/13,21:50,0.173,0.155,0.255,0.242,0.236,0.135,0.083,south,11.1,Yes
2021/04/13,22:00,0.174,0.156,0.258,0.241,0.239,0.136,0.082,south,10.7,Yes
2021/04/13,22:10,0.174,0.155,0.255,0.243,0.236,0.136,0.084,south,9.6,No
2021/04/13,22:20,0.174,0.154,0.256,0.240,0.239,0.136,0.082,south,10.1,No
2021/04/13,22:30,0.174,0.155,0.255,0.243,0.235,0.136,0.083,south,10.7,No
2021/04/13,22:40,0.174,0.155,0.257,0.241,0.239,0.136,0.083,south-southwest,9.5,Yes
2021/04/13,22:50,0.175,0.155,0.256,0.242,0.237,0.136,0.084,south-southwest,8.6,Yes
2021/04/13,23:00,0.173,0.155,0.257,0.242,0.238,0.137,0.084,south,7.4,No
2021/04/13,23:10,0.174,0.156,0.258,0.243,0.237,0.136,0.083,south,7.5,No
2021/04/13,23:20,0.173,0.156,0.255,0.242,0.239,0.136,0.083,south-southwest,9.8,No
2021/04/13,23:30,0.175,0.155,0.257,0.242,0.237,0.135,0.083,south-southwest,10.3,No
2021/04/13,23:40,0.173,0.155,0.255,0.243,0.239,0.137,0.083,south,12.0,No
2021/04/13,23:50,0.174,0.155,0.256,0.241,0.237,0.135,0.084,south-southwest,10.3,No
